AQI (32)

Current Conditions for Foresthill, CA. Mostly Cloudy, Dry   
Visibility: 10 miles
Cloud ht: 11,000 ft Foresthill Advisory text: No Warning

  Summary / Temperature 

Current Temperature
80.9°F
27.2°C
(24/hr Ago)
86.0°F
(Apparent temp)
80.6°F
Warm
Heat Index
80.1°F 

83.5°F/ 28.6°C
Little or no discomfort

 Temp Rate:

 24/hr Difference:

 Avg Running Temp:

 Todays High:

 Todays Low:

 Y-days High:

 Y-days Low:

 Todays HeatIdx:

 Y-days HeatIdx:

 Evapotranspiration:

+1.9°F/hr 

-5.1°F

78.6°F

80.9°F 11:37am

73.9°F 5:58am

91.4°F 1:13pm

72.8°F 6:59am

80.1°F 11:41am

88.3°F 1:13pm

0.047 in

115' Above Ground

 Temperature:

 6'AGL VRS 115'AGL:

 Avg Running Temp:

 Humidity:

 Todays High:

 Todays Low:

 Y-days High:

 Y-days Low:

83.0°F 

+2.1°F

81.0°F

29% 

85.0°F 11:22am

75.0°F 2:47am

91.0°F 12:09pm

75.0°F 4:06am

Temp & Humidity Graphs

  Wind 

Wind Speed

 Calm

Gusting to

 5.0 mph

Wind from ESE

116°  ESE

Calm

 Avg speed:

 Wind Run:

 Peak Gust:

  1.0 mph 

33.0 miles

  18.0 mph 6:17am

  Almanac  

Moon age: 2 days,2 hours,18 minutes,5%

Waxing Crescent
7%
Illuminated
2 days in cycle

 Moonrise:

 Moonset:

 Sunrise:

 Sunset:

 Solar Noon:

8:40am

9:34pm

6:02am

8:18pm

1:09pm

1min 48s less daylight tomorrow 

  Solar Radiation 

(Current Solar)
  327 W/m2 (32%)
(Todays High)
 1042 W/m2@10:52am
Feels like: 90.3°F in the sun

Rain

 Rain Today:

 Rain Rate (/hr):

 Rain last hour:

 Rain Yesterday:

 This Month:

 Season Total:

68 Days Since Last Rain Day

0.00 in

0.000 in

0.00 in

0.00 in

0.00 in

0.00 in

Updated Time

Updated: 7/29/14  11:49am

(Updated  sec ago)

Humidity & Barometer

 Humidity:

 Wetbulb:

 Dew Point:

 Barometer:

35% 

64.1°F 

50.7°F 

30.013 inHg 

 Baro Trend:  Steady 
Northern Calif
Preparedness
Fire 
Level 

    UV Index  

(Current UV)
4.9  Medium
(Todays High) @ 11:06am
8.6   Very High

Weather Underground 5 day Forecast

Tue Wed Thu Fri Sat
Partly Cloudy Partly Cloudy Clear Clear Clear
Partly Cloudy Partly Cloudy Clear Clear Clear
93 90 90 90 91
72 73 72 70 70

Foresthill Probe 2 Stats  
Foresthill Probe 2: is located on Thomas Street
at 3000 feet. The main Foresthill Weather site
is located on Melody ln at the 2860 foot elevation

Calm
80.3°F
26.8°C
Temp Rate:
+1.9°F
Calm
Gusting to
None
(Humidity)
37%
Calm
250°  
Updated: 29/07/14 - 11:48:32
 Todays High: 84.6°F 11:16
 Todays Low: 72.2°F 05:48
 Rain Today: 0.00 in
 Season Total: 0.00 in

Foresthill Wx: Monthly,Yearly, Highs and Lows 

Foresthill  
This Weather Data is coming from the main Foresthill
Weather site located on Melody ln at the 2860 foot
elevation
Not Foresthill Probe 2
Weather Data
Month
  High
Month
  Low
Year
High
Year
Low
Temp 96.4F
7/14/14
56.9F
7/23/14
96.4F
7/14/14
32.0F
2/4/14
Humidity 86%
7/23/14
15%
7/27/14
100%
3/1/14
11%
5/16/14
Heat Index 95.0F
7/14/14
61.4F
7/23/14
95.0F
7/14/14
35.5F
2/5/14
Wind Chill 96.4F
7/14/14
54.3F
7/23/14
96.4F
7/14/14
21.6F
2/5/14
Wind Gust 28 mph
7/20/14
0 mph
7/1/14
40 mph
3/12/14
0 mph
1/1/14
Barometer 30.11 in
7/23/14
29.73 in
7/1/14
30.55 in
1/14/14
29.47 in
2/28/14
ET 0.27 in
7/4/14
0.00 in
7/1/14
0.27 in
7/4/14
0.00 in
1/1/14
Dew Point 62.6F
7/17/14
34.0F
7/4/14
62.6F
7/17/14
5.1F
1/4/14
Infrared Satellite Regional Radar Satellite Imagery Sacramento,CA.  (click to enlarge)
NWS Weather Forecast - Outlook: This Afternoon and Tonight
This
Afternoon

Slight Chc T-Storms. Chance for Measurable Precipitation 20%
Slight Chc
T-Storms
Hi 92 °F
NWS forecast: A 20 percent chance of showers and thunderstorms. Mostly sunny, with a high near 92. West southwest wind around 8 mph.
Tonight

Partly Cloudy
Partly
Cloudy
Lo 71 °F
NWS forecast: Partly cloudy, with a low around 71. West southwest wind 5 to 7 mph becoming calm in the evening.
NWS Weather Forecast - Summary
Updated: Tuesday, July 29, 2014 - 4:45am (PDT)
YR.NO 10 Day Weather forecast
Last update: 07/29/2014 @ 00:03
Next update: 07/29/2014 @ 13:00
Provided by: 22
      Temperature Precipitation Pressure Wind  
Today
07/29/2014
11:00 17:00 86°F   30.02 inHg Light breeze from west-southwest 5 mph
  17:00 23:00 90°F   29.96 inHg Light breeze from west-southwest 6 mph
  23:00 05:00 75°F   30.00 inHg Light air from east 2 mph
    (Click to enlarge)
meteogram

    Forecast for next 9 days

      Temperature Precip Pressure Wind  
Wednesday
07/30/2014
05:00 11:00 63°F   29.94 inHg Light air from east-northeast 3 mph
  11:00 17:00 88°F   29.96 inHg Light breeze from west-southwest 6 mph
  17:00 23:00 90°F   29.93 inHg Light breeze from west-southwest 7 mph
  23:00 05:00 75°F   29.98 inHg Light breeze from east-southeast 4 mph
      Temperature Precip Pressure Wind  
Thursday
07/31/2014
05:00 11:00 68°F   29.96 inHg Light breeze from east-northeast 6 mph
  11:00 17:00 88°F   29.95 inHg Light breeze from west-southwest 6 mph
  17:00 23:00 91°F   29.89 inHg Gentle breeze from west-southwest 8 mph
  23:00 05:00 73°F   29.94 inHg Light breeze from east 4 mph
      Temperature Precip Pressure Wind  
Friday
08/01/2014
05:00 11:00 63°F   29.90 inHg Light breeze from east-northeast 5 mph
  11:00 17:00 88°F   29.91 inHg Light breeze from west-southwest 5 mph
  17:00 23:00 90°F   29.88 inHg Light breeze from west-southwest 7 mph
  23:00 05:00 73°F   29.90 inHg Light air from east 3 mph
      Temperature Precip Pressure Wind  
Saturday
08/02/2014
05:00 11:00 63°F   29.86 inHg Light breeze from east-northeast 5 mph
  11:00 17:00 90°F   29.88 inHg Light breeze from west 5 mph
  17:00 23:00 91°F   29.82 inHg Light breeze from west-southwest 7 mph
  23:00 05:00 72°F   29.85 inHg Light breeze from east-northeast 4 mph
      Temperature Precip Pressure Wind  
Sunday
08/03/2014
05:00 11:00 61°F   29.83 inHg Light air from east-northeast 3 mph
  11:00 17:00 90°F   29.84 inHg Light breeze from southwest 6 mph
  17:00 23:00 91°F   29.81 inHg Light breeze from west-southwest 7 mph
  23:00 05:00 72°F   29.86 inHg Light breeze from east 4 mph
      Temperature Precip Pressure Wind  
Monday
08/04/2014
05:00 11:00 61°F   29.85 inHg Light breeze from east 5 mph
  11:00 17:00 88°F   29.89 inHg Light breeze from southwest 6 mph
  17:00 23:00 90°F   29.85 inHg Light breeze from west-southwest 7 mph
  23:00 05:00 70°F   29.92 inHg Light breeze from east 4 mph
      Temperature Precip Pressure Wind  
Tuesday
08/05/2014
05:00 11:00 61°F   29.91 inHg Light breeze from east-northeast 5 mph
  11:00 17:00 88°F   29.94 inHg Light breeze from west-southwest 6 mph
  17:00 23:00 91°F   29.89 inHg Light breeze from west-southwest 6 mph
  23:00 05:00 73°F   29.93 inHg Light air from east-northeast 3 mph
      Temperature Precip Pressure Wind  
Wednesday
08/06/2014
05:00 11:00 63°F   29.90 inHg Light breeze from east-northeast 4 mph
  11:00 17:00 91°F   29.88 inHg Light breeze from west 6 mph
  17:00 23:00 93°F   29.82 inHg Gentle breeze from west 8 mph
  23:00 05:00 77°F   29.87 inHg Light air from east 2 mph
      Temperature Precip Pressure Wind  
Thursday
08/07/2014
05:00 11:00 64°F   29.83 inHg Light breeze from east-northeast 4 mph
  11:00 17:00 93°F   29.83 inHg Light breeze from west 6 mph

Weather History For Tuesday, July 29, 2014


On this Day - In Weather History ...
Data courtesy of weatherforyou.com
powered by Cumulus v1.9.3 (1059)
Ambient Weather VWS v14.00
Top Contact Website Map Copyright © 2007 - 2014 Foresthillweather.com Never base important decisions on this or any weather information obtained from the Internet